Miscellaneous Local Product
Issued by NWS North Platte, NE

Home | Current Version | Previous Version | Graphics & Text | Print | Product List | Glossary On
Versions: 1 2 3 4 5 6 7 8 9 10 11 12 13 14 15 16 17 18 19 20 21 22 23 24 25 26 27 28 29 30 31 32 33 34 35 36 37 38 39 40 41 42 43 44 45 46 47 48 49 50
000
AXUS43 KLBF 252010
MISLBF


WESTERN AND NORTH CENTRAL NEBRASKA HOURLY WEATHER ROUNDUP
NATIONAL WEATHER SERVICE NORTH PLATTE NE
300 PM CDT SAT APR 25 2015

***STATIONS NOT REPORTING VARIABLES SUCH AS SKY/WEATHER OR
PRESSURE ARE PROVIDED BY THE NEBRASKA DEPARTMENT OF
ROADS...RAWS...AND APRS NETWORKS...AND ARE NOT UNDER
NATIONAL WEATHER SERVICE QUALITY CONTROL***

...OBSERVATIONS IN AND NEAR THE EASTERN PANHANDLE OF NEBRASKA...

CITY           SKY/WX    TMP DP  RH WIND       PRES   REMARKS
PINE RIDGE     MOSUNNY   60  47  61 SE9       29.70F
CHADRON        MOSUNNY   67  50  54 E10G18    29.66F
ALLIANCE       MOSUNNY   68  43  40 E6        29.68F
SIDNEY         MOSUNNY   68  42  38 NE12G21   29.71S
WHITECLAY        N/A     62  47  58 SE12        N/A
CRESCENT LAKE    N/A     68  41  36 E6          N/A
BIG SPRINGS      N/A     65  50  58 SE6         N/A
$$

...OBSERVATIONS IN NORTH CENTRAL NEBRASKA...

CITY           SKY/WX    TMP DP  RH WIND       PRES   REMARKS
VALENTINE      CLOUDY    61  47  59 E12       29.73R
THEDFORD       PTSUNNY   65  51  60 E9        29.72S
AINSWORTH      CLOUDY    59  49  68 E13       29.74S
O`NEILL        CLOUDY    55  50  83 E6        29.76R
ORD            CLOUDY    53  46  77 NE13      29.72F
BROKEN BOW     CLOUDY    56  49  77 E14       29.73R
BROWNLEE         N/A     63  47  54 E14         N/A
SPRINGVIEW       N/A     56  48  75 E8G16       N/A
BREWSTER         N/A     59  52  79 E14         N/A
ROSE             N/A     54  51  90 NE12        N/A
NEWPORT          N/A     54  49  82 E13         N/A
SARGENT          N/A     52  49  89 E6          N/A
COMSTOCK         N/A     54  52  92 NE13        N/A
EWING            N/A     56  48  73 E9          N/A
$$

...OBSERVATIONS IN SOUTHWEST NEBRASKA AND FAR NORTHEAST COLORADO...

CITY           SKY/WX    TMP DP  RH WIND       PRES   REMARKS
WRAY           FAIR      71  41  34 NE6       29.71R
HOLYOKE        FAIR      70  45  40 E12       29.71S
IMPERIAL       MOSUNNY   69  42  37 NE12      29.68F
OGALLALA       MOSUNNY   65  49  55 E8        29.69S
MCCOOK         MOSUNNY   71  49  45 N6        29.68R
LEXINGTON      CLOUDY    59  52  78 NE10      29.71R
PAXTON           N/A     64  51  64 NE6         N/A
SUTHERLAND       N/A     64  48  56 CALM        N/A
BRADY            N/A     64  51  61 N3G12       N/A
GOTHENBURG       N/A     65  46  51 NE6         N/A
CALLAWAY         N/A     60  53  79 NE10        N/A
$$

...NORTH PLATTE AREA...

CITY           SKY/WX    TMP DP  RH WIND       PRES   REMARKS
$$

...SOME WEATHER OBSERVATIONS FROM AROUND THE REGION...

CITY           SKY/WX    TMP DP  RH WIND       PRES   REMARKS
DENVER         CLOUDY    66  30  26 NE15G23   29.69F
LARAMIE        CLOUDY    49  32  52 S8G21     29.79R
CHEYENNE       PTSUNNY   61  29  29 SW13      29.73F
SCOTTSBLUFF    PTSUNNY   71  37  28 NW9       29.68F
RAPID CITY     CLOUDY    51  46  83 SE13      29.70F
PIERRE         CLOUDY    53  48  83 SE12      29.76S
WINNER         CLOUDY    57  47  69 SE14      29.75S
SIOUX FALLS    CLOUDY    59  43  55 E17G24    29.78R
OMAHA          CLOUDY    52  46  80 N12       29.70S
GRAND ISLAND   CLOUDY    49  47  93 NE14      29.73S FOG
KANSAS CITY    CLOUDY    56  54  93 N13G23    29.58R
WICHITA        MOSUNNY   74  54  49 N14       29.62S
HAYS           MOSUNNY   66  52  59 NE14G21   29.68R
LIBERAL        SUNNY     79  37  22 N12G17    29.69F
GOODLAND       SUNNY     69  43  38 N8        29.71S
$$



USA.gov is the U.S. government's official web portal to all federal, state and local government web resources and services.